[[{"header":{"parameterUnit":"m.s-1","parameterCategory":1,"la1":30.2991,"la2":30.254,"lo1":-89.0895,"lo2":-89.0444,"dy":0.0017,"dx":0.0017,"nx":28,"ny":28,"refTime":"2024-04-27T21:00:00:Z","depth":0,"parameterNumber":2,"parameterNumberName":"U-component_of_WINDS"},"data":[0,0,0,0,0,0,0,0,0,0,0,0,0,0,0,0,0,0,0,0,0,0,0,0,0,0,0,0,0,0,0,0,0,0,0,0,0,0,0,0,0,0,0,0,0,0,0,0,0,0,0,0,0,0,0,0,0,0,-6.8824,-6.8824,0,-6.8843,-6.8843,-6.8844,-6.8791,-6.8789,-6.8788,-6.8786,-6.8806,-6.8808,-6.881,0,0,0,0,0,0,0,0,0,0,0,0,0,-6.8745,-6.8747,-6.8824,-6.8824,-6.8825,-6.8843,-6.8843,-6.8844,-6.8791,-6.8789,-6.8787,-6.8785,-6.8805,-6.8808,-6.881,0,0,0,0,0,0,0,0,0,0,0,0,0,-6.8773,-6.8747,-6.8824,-6.8801,-6.8799,-6.8843,-6.8843,-6.8844,-6.8792,-6.8789,-6.8787,-6.8784,-6.8804,-6.8807,-6.881,-6.8878,0,0,-6.882,-6.8821,0,0,0,0,0,0,0,0,-6.8772,-6.8776,-6.8804,-6.8802,-6.88,-6.8812,-6.8823,-6.8855,-6.8792,-6.8794,-6.8786,-6.8783,-6.881,-6.8812,-6.8821,-6.8879,-6.888,-6.882,-6.8822,-6.8823,-6.8824,0,0,0,0,0,0,0,-6.877,-6.8775,-6.8832,-6.8804,-6.8802,-6.879,-6.8791,-6.8829,-6.8816,-6.8794,-6.879,-6.8793,-6.8809,-6.8819,-6.8821,-6.888,-6.882,-6.8823,-6.8825,-6.8826,-6.8996,-6.8999,0,0,0,0,0,0,-6.8771,-6.8774,-6.8831,-6.8832,-6.878,-6.8793,-6.8795,-6.8811,-6.8815,-6.8813,-6.8795,-6.8791,-6.8814,-6.8818,-6.8822,-6.8901,-6.8823,-6.8826,-6.8828,-6.8994,-6.8997,-6.9,0,0,0,0,0,0,-6.8769,-6.8776,-6.883,-6.8802,-6.8808,-6.8797,-6.8816,-6.8812,-6.8822,-6.8816,-6.8814,-6.8808,-6.8813,-6.8818,-6.8865,-6.8901,-6.8828,-6.883,-6.8991,-6.8995,-6.8998,-6.9061,0,0,0,0,0,0,-6.8767,-6.8776,-6.8801,-6.8803,-6.881,-6.8872,-6.8818,-6.8815,-6.8828,-6.8822,-6.8827,-6.8825,-6.8811,-6.8861,-6.8868,-6.8904,-6.8833,-6.8987,-6.8992,-6.8997,-6.9055,-6.9066,-6.9076,0,0,0,0,0,-6.8764,-6.8817,-6.8802,-6.8809,-6.884,-6.8874,-6.8878,-6.886,-6.8831,-6.8856,-6.8853,-6.8825,-6.8897,-6.8866,-6.8874,-6.8911,-6.8985,-6.8991,-6.8997,-6.905,-6.9064,-6.9075,0,0,0,0,0,0,-6.8819,-6.8817,-6.88,-6.8855,-6.8866,-6.8865,-6.8896,-6.8875,-6.8894,-6.8887,-6.8865,-6.8867,-6.8919,-6.892,-6.8886,-6.8978,-6.8936,-6.8944,-6.8974,-6.8987,-6.8997,-6.8994,-6.8835,0,0,0,0,0,-6.8837,-6.8865,-6.8862,-6.8911,-6.8917,-6.8906,-6.892,-6.8906,-6.8916,-6.892,-6.8919,-6.893,-6.8955,-6.8972,-6.8994,-6.9057,-6.9057,-6.9087,-6.9097,-6.9106,-6.9112,-6.9145,-6.9158,-6.902,-6.902,-6.902,0,0,-6.8875,-6.8878,-6.8896,-6.8922,-6.8928,-6.8957,-6.891,-6.8942,-6.8964,-6.8925,-6.8968,-6.897,-6.8981,-6.9036,-6.906,-6.9039,-6.9151,-6.9114,-6.912,-6.9122,-6.9153,-6.9166,-6.9178,-6.9024,-6.9023,-6.9023,0,0,-6.8959,-6.8964,-6.9005,-6.9013,-6.9024,-6.9017,-6.9027,-6.9031,-6.903,-6.9075,-6.9046,-6.9073,-6.9116,-6.9125,-6.9135,-6.9227,-6.9202,-6.9235,-6.9287,-6.932,-6.9331,-6.9341,-6.9372,-6.9384,-6.9242,-6.9242,-6.9242,0,-6.9004,-6.9046,-6.9029,-6.9064,-6.9076,-6.9044,-6.9086,-6.9095,-6.9112,-6.9122,-6.9099,-6.9154,-6.9159,-6.9215,-6.9238,-6.9248,-6.9259,-6.9232,-6.9331,-6.934,-6.9349,-6.9379,-6.9391,-6.9246,-6.9246,-6.9245,-6.9245,0,-6.9102,-6.9132,-6.9164,-6.9182,-6.9199,-6.9237,-6.9227,-6.9246,-6.9233,-6.9229,-6.9275,-6.9281,-6.9304,-6.9318,-6.9304,-6.9374,-6.936,-6.9335,-6.9291,-6.9366,-6.9394,-6.9405,-6.9251,-6.925,-6.9249,-6.9248,0,0,-6.9215,-6.9226,-6.9237,-6.9246,-6.9257,-6.928,-6.9319,-6.9342,-6.9359,-6.9374,-6.9405,-6.9445,-6.9422,-6.9434,-6.9422,-6.9451,-6.9522,-6.9422,-6.9422,-6.9438,-6.9599,-6.9615,-6.9629,-6.9508,-6.9511,-6.9512,-6.9597,0,-6.9296,-6.936,-6.9347,-6.941,-6.9438,-6.941,-6.9444,-6.9455,-6.9454,-6.9478,-6.9477,-6.9505,-6.9473,-6.948,-6.9509,-6.9508,-6.9554,-6.9502,-6.9536,-6.9538,-6.9531,-6.9643,-6.9661,-6.974,-6.9608,-6.961,-6.9611,0,-6.9397,-6.9416,-6.9482,-6.949,-6.9502,-6.9532,-6.9553,-6.9577,-6.959,-6.9587,-6.9603,-6.9586,-6.9625,-6.9585,-6.9639,-6.9604,-6.9618,-6.962,-6.9623,-6.9622,-6.9576,-6.9643,-6.9765,-6.9776,-6.9628,-6.9627,-6.9625,0,-6.9471,-6.9514,-6.9558,-6.9567,-6.9578,-6.96,-6.9606,-6.9617,-6.9632,-6.9652,-6.9662,-6.9687,-6.9699,-6.9719,-6.971,-6.9682,-6.9766,-6.9724,-6.9763,-6.9764,-6.9779,-6.9777,-6.9902,-6.9794,-6.9794,-6.9793,-6.9793,0,-6.9561,-6.9601,-6.9592,-6.9619,-6.9665,-6.9652,-6.9698,-6.9701,-6.9711,-6.9739,-6.9718,-6.9745,-6.9733,-6.976,-6.9754,-6.9799,-6.9806,-6.9804,-6.9801,-6.9804,-6.9804,-6.981,-6.9803,-6.9796,-6.9796,-6.9795,-6.9795,0,-6.9648,-6.9644,-6.9691,-6.9699,-6.9702,-6.9735,-6.9742,-6.9768,-6.9768,-6.9803,-6.9811,-6.9809,-6.984,-6.9834,-6.9868,-6.9864,-6.992,-6.9912,-6.9915,-6.9912,-6.9951,-6.9946,-7.0081,-7.0097,-6.9981,-6.9982,-6.9983,0,-6.9704,-6.9735,-6.9747,-6.9764,-6.9772,-6.98,-6.9817,-6.9807,-6.9824,-6.9844,-6.9868,-6.9897,-6.9918,-6.9969,-6.9971,-6.9997,-6.9988,-7.0034,-6.9991,-6.9994,-6.9986,-6.9983,-6.9986,-7.0041,-7.0042,-7.0043,-7.0044,0,-6.9803,-6.98,-6.9824,-6.9848,-6.9868,-6.9887,-6.9903,-6.9919,-6.9911,-6.9932,-6.9963,-6.9981,-7.0016,-7.0045,-7.007,-7.0077,-7.0059,-7.0058,-7.0068,-7.0069,-7.0069,-7.0068,-6.9934,-7.0054,-7.0053,-7.0052,-7.0051,-7.0051,-6.9875,-6.9901,-6.9914,-6.9942,-6.9954,-6.9971,-6.9996,-6.9999,-7.0024,-7.0052,-7.0046,-7.0081,-7.0096,-7.0127,-7.0138,-7.0166,-7.0149,-7.0164,-7.0167,-7.017,-7.0174,-7.0068,-7.0171,-7.0171,-7.017,-7.017,-7.017,0,-6.9971,-6.9979,-7.0005,-7.0029,-7.0052,-7.0035,-7.0053,-7.0073,-7.0104,-7.012,-7.0143,-7.0179,-7.0208,-7.0214,-7.0242,-7.0263,-7.0256,-7.027,-7.0267,-7.0269,-7.0188,-7.0176,-7.0276,-7.0276,-7.0276,-7.0276,-7.0276,-7.0276,-7.0023,-7.0067,-7.0066,-7.0116,-7.0124,-7.0158,-7.017,-7.0186,-7.0198,-7.024,-7.0263,-7.0268,-7.028,-7.0308,-7.0335,-7.0336,-7.0346,-7.0363,-7.0361,-7.0285,-7.0274,-7.0264,-7.0252,-7.0366,-7.0367,-7.0439,-7.044,-7.044]},{"header":{"parameterUnit":"m.s-1","parameterCategory":1,"la1":30.2991,"la2":30.254,"lo1":-89.0895,"lo2":-89.0444,"dy":0.0017,"dx":0.0017,"nx":28,"ny":28,"refTime":"2024-04-27T21:00:00:Z","depth":0,"parameterNumber":3,"parameterNumberName":"V-component_of_WINDS"},"data":[0,0,0,0,0,0,0,0,0,0,0,0,0,0,0,0,0,0,0,0,0,0,0,0,0,0,0,0,0,0,0,0,0,0,0,0,0,0,0,0,0,0,0,0,0,0,0,0,0,0,0,0,0,0,0,0,0,0,3.9883,3.9883,0,3.9881,3.9881,3.9881,3.9935,3.9937,3.9938,3.994,3.9933,3.9931,3.993,0,0,0,0,0,0,0,0,0,0,0,0,0,3.9929,3.9928,3.9883,3.9883,3.9883,3.9881,3.9881,3.9881,3.9935,3.9937,3.9939,3.994,3.9933,3.9932,3.993,0,0,0,0,0,0,0,0,0,0,0,0,0,3.9916,3.9928,3.9883,3.991,3.9912,3.9881,3.9881,3.9881,3.9935,3.9937,3.9939,3.9941,3.9934,3.9932,3.993,3.9871,0,0,3.9923,3.9922,0,0,0,0,0,0,0,0,3.9917,3.9915,3.9906,3.9908,3.991,3.9911,3.9895,3.9878,3.9934,3.9926,3.994,3.9942,3.9923,3.9922,3.9917,3.9871,3.9871,3.9922,3.9921,3.992,3.9919,0,0,0,0,0,0,0,3.9918,3.9915,3.9882,3.9905,3.9908,3.9921,3.9921,3.9892,3.9912,3.9927,3.9931,3.993,3.9925,3.9919,3.9917,3.9871,3.9922,3.992,3.9919,3.9918,3.9779,3.9777,0,0,0,0,0,0,3.9916,3.9915,3.9882,3.9882,3.9919,3.9918,3.9919,3.9908,3.9913,3.9916,3.9928,3.9933,3.9922,3.992,3.9917,3.9851,3.992,3.9918,3.9916,3.9782,3.9779,3.9776,0,0,0,0,0,0,3.9917,3.9912,3.9882,3.99,3.9897,3.9915,3.9903,3.9907,3.9901,3.9914,3.9917,3.9918,3.9923,3.992,3.9883,3.9852,3.9917,3.9915,3.9784,3.9781,3.9778,3.9717,0,0,0,0,0,0,3.9918,3.9912,3.9891,3.9899,3.9896,3.9849,3.9901,3.9905,3.9898,3.9903,3.9906,3.9908,3.9925,3.9886,3.9881,3.985,3.9913,3.9787,3.9783,3.9779,3.9722,3.9712,3.9704,0,0,0,0,0,3.9919,3.9872,3.989,3.9885,3.987,3.9847,3.9845,3.9867,3.9895,3.9873,3.9882,3.9908,3.9856,3.9882,3.9876,3.9844,3.9789,3.9784,3.9779,3.9726,3.9714,3.9704,0,0,0,0,0,0,3.9858,3.9874,3.9893,3.9848,3.9846,3.9856,3.983,3.9853,3.9842,3.9847,3.9873,3.9873,3.9832,3.9834,3.9863,3.9789,3.9827,3.9821,3.9789,3.9778,3.9769,3.9769,3.9911,0,0,0,0,0,3.984,3.9821,3.9835,3.9794,3.9792,3.9811,3.9802,3.9819,3.9818,3.9817,3.9822,3.9818,3.9802,3.979,3.9775,3.9723,3.9724,3.9697,3.9688,3.9681,3.9675,3.9649,3.9637,3.9759,3.976,3.976,0,0,3.9801,3.9807,3.9793,3.9782,3.9783,3.9762,3.981,3.9786,3.9771,3.9812,3.9779,3.9783,3.978,3.9736,3.9717,3.9736,3.9641,3.9674,3.9668,3.9666,3.9642,3.9631,3.962,3.9756,3.9757,3.9757,0,0,3.972,3.9722,3.969,3.969,3.9691,3.9704,3.9696,3.9703,3.9708,3.9675,3.9707,3.9688,3.9658,3.9656,3.9651,3.9571,3.9595,3.9565,3.9517,3.9491,3.9482,3.9473,3.9446,3.9436,3.9559,3.9559,3.9559,0,3.9671,3.9643,3.9669,3.9644,3.9638,3.9677,3.9644,3.9642,3.9637,3.9632,3.9654,3.9619,3.962,3.9577,3.9558,3.9551,3.9543,3.9565,3.9481,3.9473,3.9466,3.944,3.9429,3.9556,3.9556,3.9556,3.9557,0,3.9583,3.9563,3.9536,3.9534,3.9525,3.9495,3.9516,3.9504,3.9522,3.9533,3.9499,3.9502,3.9489,3.948,3.9496,3.9439,3.9452,3.9477,3.9516,3.945,3.9426,3.9417,3.955,3.9552,3.9553,3.9554,0,0,3.9463,3.9477,3.9467,3.9467,3.9472,3.9456,3.9428,3.9418,3.9407,3.9403,3.9381,3.9355,3.938,3.9374,3.939,3.9368,3.9306,3.9397,3.9397,3.9381,3.9245,3.9226,3.9214,3.9322,3.9321,3.9319,3.9245,0,3.9386,3.9342,3.9365,3.9317,3.93,3.9337,3.9313,3.9313,3.9322,3.9308,3.9318,3.93,3.9333,3.933,3.9309,3.9318,3.928,3.9324,3.9302,3.9301,3.9302,3.9202,3.9182,3.9112,3.9236,3.9235,3.9233,0,3.929,3.9284,3.9235,3.9245,3.9239,3.9217,3.921,3.9196,3.9197,3.9205,3.92,3.9222,3.9195,3.9234,3.9198,3.9228,3.922,3.9223,3.9221,3.922,3.9263,3.9199,3.909,3.908,3.9219,3.922,3.9221,0,3.9209,3.9189,3.9157,3.9156,3.9166,3.9151,3.9154,3.9157,3.915,3.9143,3.9139,3.9128,3.9122,3.9113,3.9132,3.9159,3.9094,3.9134,3.91,3.9099,3.9084,3.9085,3.8973,3.9078,3.9078,3.9078,3.9079,0,3.9121,3.909,3.9122,3.9102,3.9068,3.9095,3.9061,3.9068,3.9071,3.9053,3.9084,3.9066,3.9092,3.9077,3.9091,3.9059,3.9056,3.9062,3.9066,3.906,3.9059,3.9055,3.9061,3.9076,3.9076,3.9077,3.9077,0,3.9025,3.9045,3.9014,3.9027,3.903,3.9004,3.9015,3.8997,3.901,3.8987,3.8983,3.9001,3.8985,3.9003,3.8988,3.8998,3.8955,3.8966,3.8956,3.8959,3.8924,3.8928,3.8807,3.8793,3.8905,3.8904,3.8903,0,3.8968,3.8946,3.8957,3.8949,3.8951,3.8936,3.8929,3.8955,3.8947,3.8947,3.8929,3.8916,3.8907,3.8879,3.8891,3.8879,3.8891,3.8849,3.8889,3.8884,3.8891,3.8893,3.8891,3.8841,3.884,3.8839,3.8838,0,3.8866,3.8877,3.8867,3.8861,3.8853,3.8849,3.8847,3.8837,3.8864,3.8853,3.8838,3.8831,3.8817,3.8804,3.8796,3.8799,3.8822,3.8825,3.8817,3.881,3.8806,3.8809,3.8934,3.8828,3.8829,3.883,3.883,3.883,3.8789,3.8771,3.8777,3.8765,3.8767,3.8765,3.8749,3.876,3.8749,3.8741,3.8756,3.8737,3.8739,3.8732,3.8732,3.8717,3.8735,3.8722,3.8719,3.8716,3.8711,3.8808,3.8715,3.8716,3.8716,3.8716,3.8716,0,3.8689,3.8695,3.8684,3.8682,3.8672,3.8697,3.8697,3.8687,3.8671,3.8672,3.8663,3.8646,3.8634,3.8645,3.8634,3.862,3.8631,3.8617,3.8618,3.8619,3.8695,3.8704,3.8608,3.8609,3.8609,3.8609,3.8609,3.8609,3.8636,3.8608,3.862,3.8593,3.8599,3.8582,3.858,3.8578,3.8579,3.856,3.855,3.8558,3.8563,3.8554,3.8543,3.8547,3.8542,3.8524,3.8531,3.8603,3.8613,3.8623,3.8632,3.8522,3.8522,3.8456,3.8455,3.8455]}]]